Time,TemperatureF,DewpointF,PressureIn,WindDirection,WindDirectionDegrees,WindSpeedMPH,WindSpeedGustMPH,Humidity,HourlyPrecipIn,Conditions,Clouds,dailyrainin,SoftwareType,DateUTC
2013-06-08 00:03:00,60.0,54.0,-100.00,WNW,300,1.0,3.0,79,0.00,,,-99.99,,2013-06-08 04:03:00,
2013-06-08 00:13:00,60.0,53.0,-100.00,WNW,300,2.0,4.0,79,0.00,,,-99.99,,2013-06-08 04:13:00,
2013-06-08 00:23:00,60.0,53.0,-100.00,NW,315,1.0,3.0,77,0.00,,,-99.99,,2013-06-08 04:23:00,
2013-06-08 00:33:00,60.0,53.0,-100.00,North,10,3.0,5.0,77,0.00,,,-99.99,,2013-06-08 04:33:00,
2013-06-08 00:42:00,60.0,53.0,-100.00,NE,40,1.0,3.0,76,0.00,,,-99.99,,2013-06-08 04:42:00,
2013-06-08 00:53:00,60.0,53.0,-100.00,North,10,1.0,3.0,75,0.00,,,-99.99,,2013-06-08 04:53:00,
2013-06-08 01:02:00,60.0,53.0,-100.00,North,5,2.0,3.0,75,0.00,,,-99.99,,2013-06-08 05:02:00,
2013-06-08 01:12:00,60.0,53.0,-100.00,NNE,15,0.0,2.0,76,0.00,,,-99.99,,2013-06-08 05:12:00,
2013-06-08 01:22:00,60.0,53.0,-100.00,NNE,30,1.0,1.0,78,0.00,,,-99.99,,2013-06-08 05:22:00,
2013-06-08 01:32:00,60.0,53.0,-100.00,NNE,30,1.0,2.0,77,0.00,,,-99.99,,2013-06-08 05:32:00,
2013-06-08 01:42:00,60.0,53.0,-100.00,NE,45,2.0,3.0,79,0.00,,,-99.99,,2013-06-08 05:42:00,
2013-06-08 01:52:00,60.0,54.0,-100.00,NE,50,1.0,2.0,81,0.00,,,-99.99,,2013-06-08 05:52:00,
2013-06-08 02:02:00,60.0,54.0,-100.00,NE,55,1.0,3.0,83,0.00,,,-99.99,,2013-06-08 06:02:00,
2013-06-08 02:12:00,59.0,53.0,-100.00,NE,40,2.0,4.0,81,0.00,,,-99.99,,2013-06-08 06:12:00,
2013-06-08 02:22:00,59.0,54.0,-100.00,NE,50,1.0,2.0,81,0.00,,,-99.99,,2013-06-08 06:22:00,
2013-06-08 02:32:00,59.0,54.0,-100.00,NE,50,2.0,3.0,81,0.00,,,-99.99,,2013-06-08 06:32:00,
2013-06-08 02:42:00,59.0,54.0,-100.00,ENE,60,2.0,4.0,82,0.00,,,-99.99,,2013-06-08 06:42:00,
2013-06-08 02:52:00,59.0,53.0,-100.00,NE,55,1.0,3.0,82,0.00,,,-99.99,,2013-06-08 06:52:00,
2013-06-08 03:02:00,58.0,53.0,-100.00,NE,35,1.0,2.0,82,0.00,,,-99.99,,2013-06-08 07:02:00,
2013-06-08 03:12:00,58.0,53.0,-100.00,NE,50,1.0,2.0,83,0.00,,,-99.99,,2013-06-08 07:12:00,
2013-06-08 03:22:00,58.0,53.0,-100.00,North,355,0.0,1.0,83,0.00,,,-99.99,,2013-06-08 07:22:00,
2013-06-08 03:32:00,58.0,53.0,-100.00,ESE,115,0.0,1.0,84,0.00,,,-99.99,,2013-06-08 07:32:00,
2013-06-08 03:42:00,58.0,54.0,-100.00,East,90,0.0,1.0,86,0.00,,,-99.99,,2013-06-08 07:42:00,
2013-06-08 03:52:00,58.0,53.0,-100.00,SE,135,0.0,1.0,86,0.00,,,-99.99,,2013-06-08 07:52:00,
2013-06-08 04:02:00,56.0,54.0,-100.00,West,275,1.0,2.0,90,0.00,,,-99.99,,2013-06-08 08:02:00,
2013-06-08 04:12:00,56.0,54.0,-100.00,West,275,0.0,0.0,89,0.00,,,-99.99,,2013-06-08 08:12:00,
2013-06-08 04:22:00,56.0,53.0,-100.00,NNW,345,0.0,1.0,89,0.00,,,-99.99,,2013-06-08 08:22:00,
2013-06-08 04:32:00,56.0,53.0,-100.00,NNE,30,1.0,2.0,90,0.00,,,-99.99,,2013-06-08 08:32:00,
2013-06-08 04:42:00,55.0,53.0,-100.00,NW,310,0.0,1.0,92,0.00,,,-99.99,,2013-06-08 08:42:00,
2013-06-08 04:52:00,56.0,53.0,-100.00,NNW,330,0.0,1.0,91,0.00,,,-99.99,,2013-06-08 08:52:00,
2013-06-08 05:02:00,55.0,53.0,-100.00,North,355,0.0,0.0,93,0.00,,,-99.99,,2013-06-08 09:02:00,
2013-06-08 05:12:00,55.0,53.0,-100.00,NNE,20,0.0,1.0,92,0.00,,,-99.99,,2013-06-08 09:12:00,
2013-06-08 05:22:00,55.0,53.0,-100.00,NNE,20,0.0,1.0,92,0.00,,,-99.99,,2013-06-08 09:22:00,
2013-06-08 05:33:00,54.0,53.0,-100.00,NW,320,0.0,2.0,94,0.00,,,-99.99,,2013-06-08 09:33:00,
2013-06-08 05:43:00,55.0,53.0,-100.00,North,5,0.0,1.0,95,0.00,,,-99.99,,2013-06-08 09:43:00,
2013-06-08 05:53:00,55.0,53.0,-100.00,East,80,1.0,1.0,94,0.00,,,-99.99,,2013-06-08 09:53:00,
2013-06-08 06:03:00,55.0,53.0,-100.00,NNE,20,0.0,2.0,94,0.00,,,-99.99,,2013-06-08 10:03:00,
2013-06-08 06:12:00,55.0,53.0,-100.00,WNW,285,1.0,1.0,95,0.00,,,-99.99,,2013-06-08 10:12:00,
2013-06-08 06:22:00,55.0,54.0,-100.00,East,90,2.0,2.0,95,0.00,,,-99.99,,2013-06-08 10:22:00,
2013-06-08 06:33:00,55.0,53.0,-100.00,East,100,0.0,2.0,94,0.00,,,-99.99,,2013-06-08 10:33:00,
2013-06-08 06:43:00,55.0,53.0,-100.00,North,0,0.0,0.0,93,0.00,,,-99.99,,2013-06-08 10:43:00,
2013-06-08 06:52:00,55.0,53.0,-100.00,West,260,1.0,2.0,95,0.00,,,-99.99,,2013-06-08 10:52:00,
2013-06-08 07:02:00,55.0,54.0,-100.00,North,10,1.0,2.0,95,0.00,,,-99.99,,2013-06-08 11:02:00,
2013-06-08 07:12:00,55.0,54.0,-100.00,NE,55,1.0,3.0,95,0.00,,,-99.99,,2013-06-08 11:12:00,
2013-06-08 07:22:00,56.0,54.0,-100.00,NW,325,0.0,2.0,94,0.00,,,-99.99,,2013-06-08 11:22:00,
2013-06-08 07:32:00,55.0,54.0,-100.00,NW,310,1.0,2.0,94,0.00,,,-99.99,,2013-06-08 11:32:00,
2013-06-08 07:42:00,56.0,54.0,-100.00,NE,50,2.0,3.0,93,0.00,,,-99.99,,2013-06-08 11:42:00,
2013-06-08 07:52:00,56.0,54.0,-100.00,NNE,25,1.0,3.0,93,0.00,,,-99.99,,2013-06-08 11:52:00,
2013-06-08 08:02:00,56.0,54.0,-100.00,NE,40,1.0,2.0,93,0.00,,,-99.99,,2013-06-08 12:02:00,
2013-06-08 08:12:00,58.0,55.0,-100.00,NW,305,0.0,2.0,89,0.00,,,-99.99,,2013-06-08 12:12:00,
2013-06-08 08:22:00,59.0,55.0,-100.00,NNE,20,2.0,3.0,85,0.00,,,-99.99,,2013-06-08 12:22:00,
2013-06-08 08:32:00,59.0,55.0,-100.00,NE,50,1.0,3.0,86,0.00,,,-99.99,,2013-06-08 12:32:00,
2013-06-08 08:42:00,59.0,55.0,-100.00,NE,50,1.0,3.0,86,0.00,,,-99.99,,2013-06-08 12:42:00,
2013-06-08 08:52:00,60.0,54.0,-100.00,ENE,70,2.0,4.0,79,0.00,,,-99.99,,2013-06-08 12:52:00,
2013-06-08 09:02:00,61.0,54.0,-100.00,North,10,2.0,4.0,78,0.00,,,-99.99,,2013-06-08 13:02:00,
2013-06-08 09:12:00,61.0,53.0,-100.00,ESE,115,0.0,3.0,76,0.00,,,-99.99,,2013-06-08 13:12:00,
2013-06-08 09:22:00,62.0,54.0,-100.00,ENE,65,1.0,3.0,75,0.00,,,-99.99,,2013-06-08 13:22:00,
2013-06-08 09:32:00,62.0,53.0,-100.00,ENE,65,2.0,4.0,71,0.00,,,-99.99,,2013-06-08 13:32:00,
2013-06-08 09:42:00,63.0,53.0,-100.00,NNE,25,1.0,6.0,71,0.00,,,-99.99,,2013-06-08 13:42:00,
2013-06-08 09:52:00,63.0,52.0,-100.00,ENE,60,2.0,6.0,68,0.00,,,-99.99,,2013-06-08 13:52:00,
2013-06-08 10:02:00,63.0,53.0,-100.00,North,5,2.0,4.0,69,0.00,,,-99.99,,2013-06-08 14:02:00,
2013-06-08 10:12:00,63.0,53.0,-100.00,NE,45,0.0,4.0,69,0.00,,,-99.99,,2013-06-08 14:12:00,
2013-06-08 10:22:00,63.0,52.0,-100.00,NE,50,1.0,6.0,67,0.00,,,-99.99,,2013-06-08 14:22:00,
2013-06-08 10:32:00,65.0,53.0,-100.00,West,265,1.0,3.0,66,0.00,,,-99.99,,2013-06-08 14:32:00,
2013-06-08 10:42:00,63.0,52.0,-100.00,WNW,285,2.0,4.0,67,0.00,,,-99.99,,2013-06-08 14:42:00,
2013-06-08 10:52:00,63.0,53.0,-100.00,WNW,285,1.0,4.0,68,0.00,,,-99.99,,2013-06-08 14:52:00,
2013-06-08 11:02:00,63.0,53.0,-100.00,SW,225,1.0,4.0,69,0.00,,,-99.99,,2013-06-08 15:02:00,
2013-06-08 11:12:00,66.0,55.0,-100.00,SW,215,2.0,4.0,68,0.00,,,-99.99,,2013-06-08 15:12:00,
2013-06-08 11:22:00,64.0,53.0,-100.00,West,260,2.0,6.0,67,0.00,,,-99.99,,2013-06-08 15:22:00,
2013-06-08 11:33:00,66.0,54.0,-100.00,SSW,210,3.0,5.0,66,0.00,,,-99.99,,2013-06-08 15:33:00,
2013-06-08 11:42:00,66.0,52.0,-100.00,SE,140,0.0,9.0,61,0.00,,,-99.99,,2013-06-08 15:42:00,
2013-06-08 11:53:00,65.0,54.0,-100.00,SE,130,0.0,8.0,67,0.00,,,-99.99,,2013-06-08 15:53:00,
2013-06-08 12:03:00,65.0,53.0,-100.00,SW,215,3.0,7.0,65,0.00,,,-99.99,,2013-06-08 16:03:00,
2013-06-08 12:12:00,66.0,54.0,-100.00,North,350,2.0,6.0,65,0.00,,,-99.99,,2013-06-08 16:12:00,
2013-06-08 12:23:00,67.0,55.0,-100.00,South,170,4.0,8.0,64,0.00,,,-99.99,,2013-06-08 16:23:00,
2013-06-08 12:33:00,67.0,55.0,-100.00,SW,235,6.0,8.0,64,0.00,,,-99.99,,2013-06-08 16:33:00,
2013-06-08 12:42:00,68.0,55.0,-100.00,SW,230,6.0,8.0,63,0.00,,,-99.99,,2013-06-08 16:42:00,
2013-06-08 12:53:00,67.0,54.0,-100.00,SW,230,4.0,7.0,62,0.00,,,-99.99,,2013-06-08 16:53:00,
2013-06-08 13:02:00,67.0,54.0,-100.00,SW,230,4.0,7.0,62,0.00,,,-99.99,,2013-06-08 17:02:00,
2013-06-08 13:12:00,67.0,54.0,-100.00,SW,235,2.0,9.0,61,0.00,,,-99.99,,2013-06-08 17:12:00,
2013-06-08 13:23:00,67.0,54.0,-100.00,ESE,110,3.0,6.0,61,0.00,,,-99.99,,2013-06-08 17:23:00,
2013-06-08 13:32:00,69.0,55.0,-100.00,ESE,105,1.0,5.0,61,0.00,,,-99.99,,2013-06-08 17:32:00,
2013-06-08 13:42:00,70.0,56.0,-100.00,SE,145,1.0,4.0,60,0.00,,,-99.99,,2013-06-08 17:42:00,
2013-06-08 13:52:00,70.0,57.0,-100.00,SSW,205,2.0,6.0,62,0.00,,,-99.99,,2013-06-08 17:52:00,
2013-06-08 14:02:00,70.0,56.0,-100.00,SSW,205,6.0,12.0,61,0.00,,,-99.99,,2013-06-08 18:02:00,
2013-06-08 14:12:00,70.0,55.0,-100.00,South,170,1.0,5.0,59,0.00,,,-99.99,,2013-06-08 18:12:00,
2013-06-08 14:22:00,70.0,56.0,-100.00,SSW,210,7.0,10.0,61,0.00,,,-99.99,,2013-06-08 18:22:00,
2013-06-08 14:32:00,69.0,56.0,-100.00,SW,225,2.0,9.0,61,0.00,,,-99.99,,2013-06-08 18:32:00,
2013-06-08 14:42:00,71.0,55.0,-100.00,SE,135,4.0,7.0,58,0.00,,,-99.99,,2013-06-08 18:42:00,
2013-06-08 14:52:00,71.0,56.0,-100.00,West,275,2.0,6.0,58,0.00,,,-99.99,,2013-06-08 18:52:00,
2013-06-08 15:03:00,72.0,56.0,-100.00,SW,215,3.0,7.0,56,0.00,,,-99.99,,2013-06-08 19:03:00,
2013-06-08 15:12:00,72.0,55.0,-100.00,SSW,205,4.0,7.0,55,0.00,,,-99.99,,2013-06-08 19:12:00,
2013-06-08 15:22:00,73.0,56.0,-100.00,ENE,75,1.0,4.0,56,0.00,,,-99.99,,2013-06-08 19:22:00,
2013-06-08 15:32:00,73.0,57.0,-100.00,NE,45,2.0,6.0,56,0.00,,,-99.99,,2013-06-08 19:32:00,
2013-06-08 15:42:00,73.0,56.0,-100.00,SSW,210,3.0,7.0,56,0.00,,,-99.99,,2013-06-08 19:42:00,
2013-06-08 15:53:00,73.0,56.0,-100.00,WNW,295,5.0,7.0,55,0.00,,,-99.99,,2013-06-08 19:53:00,
2013-06-08 16:02:00,74.0,55.0,-100.00,ENE,70,2.0,6.0,52,0.00,,,-99.99,,2013-06-08 20:02:00,
2013-06-08 16:12:00,74.0,55.0,-100.00,SE,145,4.0,8.0,52,0.00,,,-99.99,,2013-06-08 20:12:00,
2013-06-08 16:22:00,73.0,56.0,-100.00,SSW,205,4.0,10.0,54,0.00,,,-99.99,,2013-06-08 20:22:00,
2013-06-08 16:32:00,74.0,58.0,-100.00,SSE,160,3.0,11.0,57,0.00,,,-99.99,,2013-06-08 20:32:00,
2013-06-08 16:42:00,72.0,57.0,-100.00,SSW,210,3.0,7.0,59,0.00,,,-99.99,,2013-06-08 20:42:00,
2013-06-08 16:52:00,73.0,56.0,-100.00,SE,125,2.0,6.0,56,0.00,,,-99.99,,2013-06-08 20:52:00,
2013-06-08 17:02:00,74.0,59.0,-100.00,SSW,205,2.0,8.0,59,0.00,,,-99.99,,2013-06-08 21:02:00,
2013-06-08 17:12:00,73.0,57.0,-100.00,WSW,240,4.0,6.0,58,0.00,,,-99.99,,2013-06-08 21:12:00,
2013-06-08 17:22:00,73.0,56.0,-100.00,SW,215,5.0,8.0,53,0.00,,,-99.99,,2013-06-08 21:22:00,
2013-06-08 17:33:00,74.0,55.0,-100.00,SSW,210,2.0,6.0,51,0.00,,,-99.99,,2013-06-08 21:33:00,
2013-06-08 17:43:00,75.0,56.0,-100.00,WSW,255,4.0,7.0,52,0.00,,,-99.99,,2013-06-08 21:43:00,
2013-06-08 17:52:00,75.0,58.0,-100.00,SW,230,6.0,7.0,55,0.00,,,-99.99,,2013-06-08 21:52:00,
2013-06-08 18:02:00,75.0,57.0,-100.00,SW,225,4.0,6.0,54,0.00,,,-99.99,,2013-06-08 22:02:00,
2013-06-08 18:12:00,74.0,56.0,-100.00,SSW,195,2.0,5.0,54,0.00,,,-99.99,,2013-06-08 22:12:00,
2013-06-08 18:23:00,75.0,56.0,-100.00,SW,235,5.0,7.0,52,0.00,,,-99.99,,2013-06-08 22:23:00,
2013-06-08 18:33:00,74.0,57.0,-100.00,West,270,3.0,8.0,54,0.00,,,-99.99,,2013-06-08 22:33:00,
2013-06-08 18:42:00,75.0,56.0,-100.00,SW,225,2.0,6.0,52,0.00,,,-99.99,,2013-06-08 22:42:00,
2013-06-08 18:52:00,74.0,56.0,-100.00,SSE,155,1.0,6.0,52,0.00,,,-99.99,,2013-06-08 22:52:00,
2013-06-08 19:02:00,75.0,57.0,-100.00,SW,235,6.0,8.0,52,0.00,,,-99.99,,2013-06-08 23:02:00,
2013-06-08 19:12:00,75.0,57.0,-100.00,SW,235,4.0,7.0,53,0.00,,,-99.99,,2013-06-08 23:12:00,
2013-06-08 19:22:00,74.0,55.0,-100.00,WSW,250,1.0,7.0,51,0.00,,,-99.99,,2013-06-08 23:22:00,
2013-06-08 19:32:00,74.0,55.0,-100.00,West,265,2.0,5.0,52,0.00,,,-99.99,,2013-06-08 23:32:00,
2013-06-08 19:42:00,74.0,55.0,-100.00,West,270,2.0,4.0,51,0.00,,,-99.99,,2013-06-08 23:42:00,
2013-06-08 19:52:00,74.0,55.0,-100.00,WSW,255,1.0,3.0,50,0.00,,,-99.99,,2013-06-08 23:52:00,
2013-06-08 20:02:00,74.0,56.0,-100.00,NW,305,1.0,2.0,52,0.00,,,-99.99,,2013-06-09 00:02:00,
2013-06-08 20:12:00,74.0,56.0,-100.00,NW,310,1.0,2.0,52,0.00,,,-99.99,,2013-06-09 00:12:00,
2013-06-08 20:22:00,74.0,56.0,-100.00,NW,320,1.0,2.0,54,0.00,,,-99.99,,2013-06-09 00:22:00,
2013-06-08 20:32:00,73.0,58.0,-100.00,NW,325,1.0,2.0,58,0.00,,,-99.99,,2013-06-09 00:32:00,
2013-06-08 20:42:00,72.0,57.0,-100.00,NNE,20,1.0,1.0,58,0.00,,,-99.99,,2013-06-09 00:42:00,
2013-06-08 20:52:00,72.0,56.0,-100.00,NNW,330,1.0,2.0,58,0.00,,,-99.99,,2013-06-09 00:52:00,
2013-06-08 21:02:00,71.0,56.0,-100.00,NE,50,1.0,2.0,57,0.00,,,-99.99,,2013-06-09 01:02:00,
2013-06-08 21:12:00,70.0,58.0,-100.00,ENE,65,1.0,2.0,65,0.00,,,-99.99,,2013-06-09 01:12:00,
2013-06-08 21:22:00,69.0,58.0,-100.00,SE,135,0.0,1.0,66,0.00,,,-99.99,,2013-06-09 01:22:00,
2013-06-08 21:32:00,69.0,58.0,-100.00,ENE,75,2.0,2.0,67,0.00,,,-99.99,,2013-06-09 01:32:00,
2013-06-08 21:42:00,68.0,58.0,-100.00,ENE,75,2.0,4.0,70,0.00,,,-99.99,,2013-06-09 01:42:00,
2013-06-08 21:52:00,67.0,59.0,-100.00,ESE,115,1.0,3.0,73,0.00,,,-99.99,,2013-06-09 01:52:00,
2013-06-08 22:02:00,69.0,58.0,-100.00,ESE,105,0.0,2.0,69,0.00,,,-99.99,,2013-06-09 02:02:00,
2013-06-08 22:12:00,67.0,58.0,-100.00,WNW,300,0.0,1.0,72,0.00,,,-99.99,,2013-06-09 02:12:00,
2013-06-08 22:22:00,67.0,58.0,-100.00,NNW,330,0.0,1.0,74,0.00,,,-99.99,,2013-06-09 02:22:00,
2013-06-08 22:32:00,67.0,58.0,-100.00,ESE,115,1.0,2.0,74,0.00,,,-99.99,,2013-06-09 02:32:00,
2013-06-08 22:42:00,67.0,58.0,-100.00,East,95,0.0,1.0,71,0.00,,,-99.99,,2013-06-09 02:42:00,
2013-06-08 22:52:00,67.0,59.0,-100.00,NE,45,0.0,1.0,74,0.00,,,-99.99,,2013-06-09 02:52:00,
2013-06-08 23:02:00,67.0,59.0,-100.00,ENE,70,1.0,1.0,77,0.00,,,-99.99,,2013-06-09 03:02:00,
2013-06-08 23:12:00,67.0,60.0,-100.00,ENE,70,1.0,2.0,77,0.00,,,-99.99,,2013-06-09 03:12:00,
2013-06-08 23:22:00,67.0,60.0,-100.00,NE,55,2.0,3.0,78,0.00,,,-99.99,,2013-06-09 03:22:00,
2013-06-08 23:33:00,67.0,60.0,-100.00,East,100,2.0,3.0,78,0.00,,,-99.99,,2013-06-09 03:33:00,
2013-06-08 23:43:00,68.0,59.0,-100.00,East,95,1.0,4.0,75,0.00,,,-99.99,,2013-06-09 03:43:00,
2013-06-08 23:53:00,68.0,59.0,-100.00,NNE,20,1.0,2.0,74,0.00,,,-99.99,,2013-06-09 03:53:00,